QPF
0.00 0.01 0.01 0.01 0.00 0.00 0.00 0.00 0.00 0.00 0.00 0.00 0.00 0.00 0.00 0.00 0.00 0.00 0.00 0.00 0.00 0.00 0.00 0.00 0.00 0.00 0.01 0.01 0.02 0.01 0.01 0.02 0.02 0.03 0.03 0.04 0.03 0.00 0.01 0.01 0.01 0.01 0.01
0.00 0.01 0.01 0.01 0.01 0.01 0.00 0.00 0.00 0.00 0.00 0.00 0.00 0.00 0.00 0.00 0.00 0.00 0.00 0.00 0.00 0.00 0.00 0.00 0.00 0.00 0.01 0.01 0.01 0.01 0.01 0.02 0.02 0.03 0.06 0.06 0.03 0.01 0.00 0.01 0.01 0.01 0.02
0.01 0.01 0.01 0.01 0.01 0.01 0.01 0.00 0.00 0.00 0.00 0.00 0.00 0.00 0.00 0.00 0.00 0.00 0.01 0.01 0.00 0.00 0.00 0.00 0.00 0.00 0.00 0.00 0.01 0.01 0.01 0.01 0.01 0.01 0.04 0.04 0.01 0.00 0.00 0.00 0.01 0.00 0.00
0.00 0.00 0.01 0.01 0.02 0.01 0.01 0.00 0.00 0.00 0.00 0.00 0.00 0.00 0.00 0.00 0.00 0.00 0.01 0.01 0.00 0.00 0.00 0.00 0.00 0.00 0.00 0.00 0.00 0.00 0.00 0.00 0.00 0.00 0.02 0.01 0.01 0.00 0.01 0.01 0.00 0.00 0.00
0.01 0.01 0.01 0.01 0.01 0.01 0.01 0.01 0.00 0.00 0.00 0.00 0.00 0.00 0.00 0.00 0.00 0.00 0.01 0.01 0.00 0.00 0.00 0.00 0.00 0.00 0.00 0.00 0.00 0.00 0.00 0.01 0.01 0.00 0.01 0.01 0.01 0.01 0.01 0.01 0.01 0.01 0.01
0.00 0.01 0.02 0.01 0.01 0.01 0.01 0.00 0.00 0.00 0.00 0.00 0.00 0.00 0.00 0.00 0.00 0.00 0.00 0.00 0.00 0.00 0.00 0.00 0.00 0.00 0.00 0.00 0.00 0.00 0.00 0.01 0.01 0.00 0.00 0.00 0.00 0.00 0.01 0.01 0.01 0.02 0.02
0.00 0.00 0.02 0.02 0.01 0.01 0.01 0.01 0.01 0.01 0.01 0.00 0.00 0.00 0.00 0.00 0.00 0.00 0.00 0.00 0.00 0.00 0.00 0.00 0.00 0.00 0.00 0.00 0.00 0.00 0.00 0.00 0.00 0.00 0.00 0.00 0.00 0.00 0.00 0.01 0.01 0.01 0.03
0.00 0.00 0.01 0.01 0.01 0.01 0.01 0.01 0.01 0.01 0.01 0.01 0.00 0.00 0.00 0.00 0.00 0.00 0.00 0.00 0.00 0.00 0.00 0.00 0.00 0.00 0.00 0.00 0.00 0.00 0.00 0.00 0.00 0.00 0.00 0.00 0.00 0.00 0.00 0.00 0.00 0.00 0.01
0.00 0.00 0.00 0.00 0.00 0.00 0.00 0.01 0.01 0.02 0.02 0.02 0.01 0.00 0.00 0.00 0.00 0.00 0.00 0.00 0.00 0.00 0.00 0.00 0.00 0.00 0.00 0.00 0.00 0.00 0.00 0.00 0.00 0.00 0.00 0.00 0.00 0.00 0.00 0.00 0.00 0.00 0.00
0.00 0.00 0.00 0.00 0.00 0.00 0.00 0.01 0.02 0.03 0.03 0.02 0.01 0.01 0.01 0.00 0.00 0.00 0.00 0.00 0.01 0.01 0.00 0.00 0.00 0.00 0.00 0.00 0.00 0.00 0.00 0.00 0.00 0.00 0.00 0.00 0.00 0.01 0.00 0.00 0.00 0.00 0.00
0.01 0.00 0.00 0.00 0.00 0.00 0.00 0.01 0.02 0.02 0.02 0.02 0.01 0.01 0.01 0.01 0.01 0.01 0.00 0.01 0.01 0.00 0.01 0.00 0.00 0.01 0.01 0.00 0.00 0.00 0.00 0.01 0.01 0.01 0.01 0.01 0.00 0.00 0.00 0.00 0.00 0.00 0.00
0.00 0.00 0.00 0.00 0.00 0.00 0.00 0.00 0.01 0.01 0.01 0.01 0.02 0.02 0.02 0.01 0.00 0.00 0.01 0.01 0.01 0.01 0.01 0.01 0.01 0.01 0.01 0.01 0.01 0.00 0.00 0.00 0.01 0.01 0.01 0.00 0.00 0.00 0.00 0.00 0.00 0.00 0.00
0.00 0.00 0.00 0.00 0.00 0.00 0.00 0.00 0.01 0.01 0.01 0.01 0.01 0.01 0.02 0.02 0.01 0.01 0.01 0.01 0.01 0.01 0.01 0.01 0.01 0.01 0.01 0.01 0.00 0.00 0.00 0.00 0.01 0.01 0.00 0.00 0.00 0.00 0.00 0.00 0.00 0.00 0.00
0.01 0.01 0.01 0.01 0.01 0.01 0.01 0.01 0.01 0.01 0.01 0.01 0.01 0.01 0.01 0.02 0.01 0.01 0.01 0.01 0.02 0.02 0.02 0.02 0.01 0.01 0.01 0.00 0.00 0.00 0.00 0.01 0.00 0.00 0.00 0.00 0.00 0.00 0.00 0.00 0.00 0.00 0.00
0.02 0.02 0.02 0.02 0.01 0.01 0.01 0.01 0.01 0.01 0.02 0.01 0.01 0.02 0.03 0.03 0.02 0.01 0.01 0.01 0.01 0.01 0.01 0.01 0.01 0.01 0.01 0.01 0.01 0.01 0.00 0.00 0.00 0.00 0.00 0.00 0.00 0.00 0.00 0.00 0.00 0.00 0.00
0.03 0.03 0.02 0.02 0.02 0.01 0.01 0.01 0.01 0.02 0.02 0.01 0.01 0.01 0.01 0.01 0.01 0.01 0.01 0.01 0.01 0.01 0.01 0.01 0.01 0.01 0.01 0.01 0.01 0.01 0.01 0.01 0.01 0.00 0.00 0.00 0.00 0.00 0.01 0.01 0.01 0.01 0.01
0.02 0.03 0.02 0.02 0.02 0.02 0.02 0.02 0.02 0.02 0.02 0.01 0.01 0.01 0.01 0.01 0.00 0.01 0.01 0.01 0.01 0.01 0.01 0.01 0.01 0.01 0.01 0.01 0.01 0.01 0.01 0.01 0.01 0.01 0.01 0.01 0.01 0.01 0.02 0.02 0.02 0.02 0.01
0.02 0.03 0.02 0.01 0.01 0.01 0.01 0.01 0.02 0.02 0.02 0.01 0.01 0.01 0.01 0.01 0.00 0.00 0.01 0.01 0.01 0.01 0.01 0.01 0.01 0.01 0.01 0.01 0.01 0.01 0.01 0.01 0.01 0.01 0.01 0.01 0.01 0.01 0.01 0.01 0.01 0.01 0.01
0.02 0.04 0.04 0.03 0.02 0.02 0.02 0.01 0.01 0.01 0.01 0.01 0.01 0.00 0.00 0.00 0.00 0.00 0.00 0.00 0.00 0.00 0.00 0.01 0.01 0.01 0.01 0.01 0.01 0.01 0.01 0.01 0.01 0.01 0.01 0.01 0.01 0.01 0.01 0.01 0.01 0.01 0.01
0.01 0.03 0.05 0.06 0.04 0.04 0.04 0.02 0.01 0.01 0.01 0.01 0.01 0.01 0.01 0.01 0.01 0.01 0.01 0.01 0.01 0.01 0.01 0.01 0.01 0.01 0.01 0.01 0.01 0.01 0.01 0.01 0.01 0.01 0.01 0.01 0.02 0.02 0.02 0.02 0.02 0.02 0.02
0.00 0.01 0.03 0.05 0.05 0.04 0.04 0.03 0.02 0.01 0.01 0.01 0.01 0.02 0.02 0.02 0.01 0.01 0.01 0.02 0.02 0.02 0.02 0.02 0.01 0.01 0.01 0.01 0.01 0.01 0.01 0.01 0.01 0.01 0.02 0.02 0.02 0.02 0.02 0.02 0.02 0.02 0.02
0.00 0.00 0.01 0.02 0.04 0.04 0.04 0.04 0.02 0.01 0.01 0.01 0.01 0.01 0.02 0.02 0.01 0.01 0.01 0.01 0.01 0.01 0.01 0.01 0.01 0.01 0.01 0.00 0.00 0.00 0.01 0.01 0.01 0.01 0.01 0.01 0.01 0.01 0.02 0.02 0.02 0.01 0.01
0.00 0.00 0.00 0.01 0.01 0.02 0.03 0.03 0.03 0.02 0.02 0.02 0.01 0.01 0.02 0.01 0.01 0.01 0.02 0.02 0.02 0.02 0.01 0.01 0.01 0.00 0.00 0.00 0.00 0.00 0.01 0.01 0.01 0.01 0.01 0.01 0.01 0.01 0.01 0.01 0.01 0.01 0.01
0.01 0.00 0.01 0.01 0.01 0.01 0.01 0.01 0.02 0.02 0.02 0.02 0.02 0.02 0.02 0.02 0.02 0.02 0.03 0.03 0.03 0.03 0.03 0.02 0.02 0.01 0.01 0.00 0.00 0.01 0.01 0.01 0.01 0.01 0.01 0.01 0.01 0.01 0.01 0.01 0.01 0.02 0.02
0.01 0.01 0.01 0.01 0.01 0.00 0.00 0.01 0.01 0.01 0.01 0.02 0.02 0.01 0.01 0.02 0.02 0.03 0.04 0.04 0.03 0.03 0.02 0.02 0.01 0.01 0.01 0.01 0.01 0.01 0.01 0.01 0.01 0.01 0.01 0.02 0.01 0.01 0.02 0.02 0.02 0.01 0.01
0.01 0.02 0.02 0.02 0.01 0.01 0.01 0.00 0.01 0.01 0.01 0.01 0.01 0.01 0.01 0.01 0.02 0.02 0.02 0.02 0.02 0.01 0.01 0.01 0.00 0.00 0.01 0.01 0.01 0.01 0.01 0.01 0.01 0.01 0.01 0.01 0.01 0.01 0.01 0.01 0.01 0.01 0.01
MSLP
1014.86 1015.22 1015.53 1015.77 1015.96 1016.11 1016.22 1016.33 1016.45 1016.60 1016.78 1017.00 1017.24 1017.49 1017.73 1017.96 1018.14 1018.28 1018.37 1018.43 1018.48 1018.52 1018.56 1018.63 1018.73 1018.85 1018.99 1019.15 1019.29 1019.41 1019.50 1019.55 1019.55 1019.50 1019.41 1019.29 1019.16 1019.01 1018.87 1018.74 1018.65 1018.57 1018.53
1014.76 1015.14 1015.45 1015.71 1015.90 1016.05 1016.17 1016.29 1016.43 1016.59 1016.79 1017.02 1017.28 1017.54 1017.80 1018.03 1018.23 1018.39 1018.51 1018.60 1018.66 1018.72 1018.79 1018.87 1018.97 1019.10 1019.24 1019.39 1019.54 1019.68 1019.79 1019.86 1019.88 1019.85 1019.77 1019.63 1019.46 1019.27 1019.05 1018.85 1018.66 1018.50 1018.37
1014.68 1015.09 1015.43 1015.70 1015.92 1016.09 1016.23 1016.38 1016.53 1016.72 1016.93 1017.17 1017.43 1017.69 1017.95 1018.18 1018.39 1018.55 1018.69 1018.80 1018.89 1018.97 1019.05 1019.15 1019.26 1019.38 1019.52 1019.67 1019.82 1019.97 1020.09 1020.17 1020.22 1020.20 1020.13 1019.99 1019.81 1019.58 1019.31 1019.03 1018.76 1018.51 1018.30
1014.59 1015.04 1015.41 1015.72 1015.97 1016.18 1016.36 1016.54 1016.74 1016.95 1017.18 1017.42 1017.68 1017.94 1018.18 1018.40 1018.60 1018.77 1018.91 1019.03 1019.14 1019.24 1019.34 1019.44 1019.55 1019.67 1019.80 1019.93 1020.07 1020.21 1020.33 1020.42 1020.47 1020.48 1020.43 1020.31 1020.13 1019.89 1019.60 1019.28 1018.96 1018.64 1018.35
1014.44 1014.92 1015.35 1015.70 1016.01 1016.27 1016.51 1016.74 1016.98 1017.23 1017.48 1017.74 1018.00 1018.24 1018.47 1018.67 1018.85 1019.01 1019.15 1019.28 1019.40 1019.52 1019.62 1019.73 1019.84 1019.95 1020.05 1020.16 1020.26 1020.36 1020.47 1020.55 1020.61 1020.64 1020.62 1020.53 1020.39 1020.17 1019.90 1019.58 1019.23 1018.88 1018.54
1014.18 1014.71 1015.18 1015.59 1015.96 1016.28 1016.59 1016.90 1017.19 1017.49 1017.78 1018.05 1018.31 1018.54 1018.75 1018.93 1019.09 1019.24 1019.38 1019.52 1019.65 1019.78 1019.90 1020.01 1020.11 1020.20 1020.27 1020.33 1020.39 1020.45 1020.52 1020.58 1020.64 1020.68 1020.70 1020.66 1020.57 1020.41 1020.19 1019.91 1019.59 1019.25 1018.90
1013.81 1014.37 1014.88 1015.35 1015.78 1016.19 1016.57 1016.95 1017.31 1017.66 1017.99 1018.30 1018.56 1018.79 1018.99 1019.15 1019.30 1019.44 1019.58 1019.73 1019.88 1020.03 1020.16 1020.29 1020.38 1020.45 1020.49 1020.51 1020.52 1020.53 1020.54 1020.58 1020.63 1020.68 1020.72 1020.74 1020.72 1020.64 1020.50 1020.29 1020.03 1019.73 1019.40
1013.35 1013.94 1014.50 1015.02 1015.51 1015.99 1016.45 1016.89 1017.32 1017.73 1018.11 1018.44 1018.72 1018.96 1019.15 1019.31 1019.46 1019.60 1019.75 1019.92 1020.09 1020.27 1020.44 1020.58 1020.69 1020.75 1020.77 1020.75 1020.72 1020.67 1020.65 1020.65 1020.67 1020.73 1020.80 1020.87 1020.91 1020.91 1020.86 1020.74 1020.55 1020.30 1020.01
1012.90 1013.51 1014.10 1014.66 1015.21 1015.74 1016.26 1016.77 1017.26 1017.72 1018.14 1018.51 1018.81 1019.06 1019.26 1019.43 1019.58 1019.74 1019.92 1020.11 1020.33 1020.55 1020.77 1020.95 1021.08 1021.15 1021.17 1021.14 1021.07 1020.99 1020.93 1020.89 1020.89 1020.94 1021.02 1021.12 1021.21 1021.28 1021.29 1021.25 1021.13 1020.94 1020.69
1012.55 1013.18 1013.80 1014.40 1014.98 1015.56 1016.13 1016.68 1017.22 1017.72 1018.17 1018.56 1018.89 1019.15 1019.37 1019.55 1019.73 1019.91 1020.12 1020.36 1020.63 1020.91 1021.17 1021.41 1021.58 1021.70 1021.73 1021.71 1021.64 1021.54 1021.45 1021.38 1021.36 1021.39 1021.46 1021.56 1021.67 1021.76 1021.81 1021.81 1021.73 1021.58 1021.36
1012.43 1013.08 1013.72 1014.34 1014.95 1015.56 1016.15 1016.73 1017.29 1017.82 1018.29 1018.70 1019.04 1019.32 1019.55 1019.76 1019.96 1020.18 1020.43 1020.71 1021.03 1021.36 1021.69 1021.98 1022.22 1022.38 1022.46 1022.47 1022.41 1022.32 1022.22 1022.13 1022.08 1022.07 1022.11 1022.18 1022.27 1022.35 1022.40 1022.39 1022.32 1022.18 1021.97
1012.60 1013.27 1013.93 1014.58 1015.21 1015.83 1016.43 1017.02 1017.59 1018.11 1018.59 1019.00 1019.35 1019.65 1019.90 1020.12 1020.34 1020.59 1020.87 1021.19 1021.55 1021.93 1022.31 1022.66 1022.96 1023.18 1023.32 1023.37 1023.35 1023.28 1023.17 1023.08 1022.99 1022.95 1022.93 1022.95 1022.98 1023.01 1023.01 1022.96 1022.86 1022.69 1022.46
1013.09 1013.80 1014.48 1015.14 1015.78 1016.41 1017.01 1017.59 1018.14 1018.66 1019.12 1019.53 1019.88 1020.18 1020.43 1020.67 1020.91 1021.16 1021.46 1021.80 1022.19 1022.60 1023.02 1023.42 1023.77 1024.04 1024.23 1024.33 1024.36 1024.31 1024.23 1024.12 1024.01 1023.92 1023.84 1023.78 1023.73 1023.67 1023.59 1023.48 1023.32 1023.10 1022.84
1013.87 1014.61 1015.32 1016.00 1016.65 1017.27 1017.86 1018.43 1018.96 1019.45 1019.90 1020.29 1020.63 1020.92 1021.18 1021.41 1021.65 1021.91 1022.21 1022.55 1022.94 1023.36 1023.79 1024.20 1024.58 1024.90 1025.13 1025.28 1025.34 1025.33 1025.26 1025.16 1025.03 1024.89 1024.75 1024.61 1024.47 1024.31 1024.14 1023.94 1023.70 1023.43 1023.13
1014.83 1015.61 1016.35 1017.05 1017.71 1018.33 1018.91 1019.46 1019.97 1020.43 1020.86 1021.23 1021.56 1021.84 1022.08 1022.31 1022.54 1022.79 1023.07 1023.39 1023.76 1024.16 1024.57 1024.98 1025.36 1025.70 1025.96 1026.14 1026.23 1026.26 1026.21 1026.10 1025.96 1025.78 1025.59 1025.38 1025.15 1024.91 1024.64 1024.35 1024.05 1023.72 1023.38
1015.85 1016.66 1017.43 1018.15 1018.82 1019.44 1020.02 1020.55 1021.04 1021.50 1021.90 1022.26 1022.58 1022.84 1023.09 1023.30 1023.52 1023.75 1024.01 1024.30 1024.62 1024.98 1025.36 1025.75 1026.11 1026.44 1026.70 1026.90 1027.02 1027.06 1027.03 1026.93 1026.78 1026.58 1026.34 1026.07 1025.78 1025.46 1025.12 1024.77 1024.41 1024.03 1023.66
1016.80 1017.64 1018.43 1019.17 1019.85 1020.48 1021.06 1021.59 1022.08 1022.52 1022.92 1023.28 1023.59 1023.86 1024.10 1024.32 1024.53 1024.74 1024.97 1025.23 1025.52 1025.83 1026.17 1026.51 1026.84 1027.14 1027.40 1027.59 1027.72 1027.78 1027.76 1027.67 1027.51 1027.30 1027.03 1026.72 1026.38 1026.02 1025.63 1025.23 1024.82 1024.42 1024.02
1017.59 1018.43 1019.24 1019.99 1020.70 1021.34 1021.93 1022.47 1022.97 1023.42 1023.83 1024.20 1024.53 1024.81 1025.07 1025.30 1025.51 1025.72 1025.94 1026.17 1026.43 1026.70 1026.99 1027.29 1027.59 1027.86 1028.10 1028.29 1028.41 1028.47 1028.45 1028.36 1028.20 1027.98 1027.70 1027.36 1026.99 1026.59 1026.17 1025.74 1025.31 1024.88 1024.46
1018.18 1019.01 1019.82 1020.59 1021.30 1021.97 1022.59 1023.16 1023.68 1024.16 1024.59 1024.99 1025.34 1025.66 1025.94 1026.20 1026.44 1026.67 1026.89 1027.11 1027.35 1027.60 1027.87 1028.13 1028.39 1028.64 1028.85 1029.02 1029.14 1029.19 1029.16 1029.07 1028.90 1028.66 1028.36 1028.01 1027.60 1027.18 1026.73 1026.27 1025.82 1025.37 1024.93
1018.58 1019.39 1020.20 1020.97 1021.71 1022.40 1023.04 1023.65 1024.20 1024.72 1025.20 1025.64 1026.03 1026.40 1026.72 1027.03 1027.30 1027.56 1027.81 1028.05 1028.29 1028.54 1028.79 1029.03 1029.27 1029.49 1029.68 1029.83 1029.92 1029.95 1029.91 1029.80 1029.60 1029.34 1029.01 1028.62 1028.19 1027.72 1027.24 1026.76 1026.27 1025.79 1025.33
1018.86 1019.65 1020.43 1021.21 1021.97 1022.68 1023.37 1024.01 1024.61 1025.17 1025.69 1026.18 1026.63 1027.04 1027.42 1027.78 1028.10 1028.41 1028.69 1028.96 1029.22 1029.48 1029.73 1029.97 1030.19 1030.39 1030.56 1030.68 1030.74 1030.74 1030.66 1030.51 1030.27 1029.96 1029.58 1029.15 1028.67 1028.15 1027.62 1027.09 1026.56 1026.04 1025.53
1019.10 1019.86 1020.64 1021.41 1022.18 1022.93 1023.64 1024.32 1024.96 1025.57 1026.14 1026.67 1027.17 1027.63 1028.06 1028.47 1028.84 1029.19 1029.52 1029.83 1030.12 1030.39 1030.65 1030.89 1031.10 1031.28 1031.42 1031.50 1031.52 1031.47 1031.34 1031.12 1030.83 1030.45 1030.00 1029.49 1028.94 1028.36 1027.77 1027.17 1026.58 1026.00 1025.44
1019.39 1020.12 1020.89 1021.67 1022.45 1023.22 1023.96 1024.67 1025.35 1025.99 1026.59 1027.16 1027.70 1028.20 1028.68 1029.12 1029.54 1029.93 1030.29 1030.62 1030.93 1031.21 1031.47 1031.70 1031.90 1032.05 1032.16 1032.19 1032.16 1032.05 1031.84 1031.56 1031.18 1030.72 1030.19 1029.59 1028.95 1028.29 1027.61 1026.94 1026.28 1025.64 1025.02
1019.78 1020.51 1021.27 1022.05 1022.84 1023.62 1024.38 1025.11 1025.81 1026.47 1027.10 1027.69 1028.26 1028.78 1029.28 1029.75 1030.19 1030.59 1030.97 1031.31 1031.63 1031.91 1032.16 1032.37 1032.53 1032.65 1032.70 1032.68 1032.58 1032.40 1032.12 1031.74 1031.28 1030.73 1030.10 1029.41 1028.68 1027.92 1027.16 1026.41 1025.68 1024.99 1024.32
1020.31 1021.03 1021.79 1022.58 1023.37 1024.15 1024.92 1025.65 1026.36 1027.03 1027.67 1028.27 1028.84 1029.38 1029.88 1030.35 1030.79 1031.19 1031.57 1031.90 1032.20 1032.46 1032.68 1032.85 1032.97 1033.03 1033.03 1032.94 1032.77 1032.51 1032.15 1031.69 1031.13 1030.49 1029.77 1028.99 1028.17 1027.34 1026.50 1025.69 1024.91 1024.17 1023.48
1020.96 1021.69 1022.45 1023.23 1024.02 1024.80 1025.55 1026.29 1026.99 1027.66 1028.29 1028.89 1029.46 1029.99 1030.48 1030.94 1031.36 1031.75 1032.09 1032.40 1032.66 1032.88 1033.05 1033.17 1033.23 1033.23 1033.15 1033.00 1032.75 1032.41 1031.97 1031.44 1030.80 1030.08 1029.29 1028.44 1027.55 1026.66 1025.77 1024.91 1024.10 1023.34 1022.64
Thickness
5723 5722 5720 5719 5718 5718 5716 5715 5714 5713 5712 5710 5709 5708 5706 5704 5702 5700 5699 5698 5696 5695 5694 5692 5689 5689 5686 5686 5685 5683 5681 5678 5671 5672 5674 5675 5673 5672 5671 5670 5670 5668 5667
5723 5721 5719 5718 5717 5715 5714 5714 5713 5712 5711 5710 5708 5706 5704 5702 5701 5698 5696 5695 5694 5692 5691 5689 5687 5686 5683 5682 5681 5679 5677 5675 5671 5666 5667 5668 5668 5668 5667 5666 5665 5664 5662
5722 5719 5717 5716 5714 5713 5713 5712 5712 5711 5709 5708 5706 5703 5701 5700 5698 5697 5695 5693 5692 5690 5689 5686 5684 5682 5679 5678 5677 5674 5673 5672 5669 5665 5662 5663 5663 5663 5661 5660 5660 5659 5658
5720 5717 5715 5714 5713 5712 5711 5710 5710 5709 5707 5706 5704 5701 5699 5697 5695 5694 5693 5691 5689 5688 5687 5684 5681 5679 5676 5674 5672 5670 5668 5666 5664 5661 5658 5657 5657 5657 5655 5652 5651 5652 5652
5718 5715 5714 5714 5713 5711 5709 5708 5707 5706 5704 5703 5701 5698 5696 5694 5692 5690 5689 5688 5686 5684 5683 5681 5678 5676 5673 5671 5668 5665 5663 5659 5657 5654 5651 5650 5649 5648 5646 5646 5644 5644 5645
5717 5714 5713 5712 5710 5708 5707 5705 5704 5702 5701 5699 5697 5694 5691 5690 5688 5687 5685 5683 5682 5680 5677 5675 5674 5671 5669 5666 5664 5662 5659 5655 5651 5648 5645 5642 5641 5641 5641 5640 5637 5635 5633
5716 5713 5711 5709 5707 5706 5705 5702 5700 5698 5696 5694 5692 5690 5687 5685 5684 5683 5681 5679 5677 5675 5673 5671 5670 5667 5664 5661 5659 5657 5655 5652 5649 5645 5640 5638 5636 5635 5634 5632 5629 5627 5626
5715 5712 5710 5707 5704 5703 5701 5698 5697 5695 5692 5690 5688 5686 5683 5681 5680 5679 5677 5675 5673 5671 5669 5667 5664 5661 5659 5656 5654 5651 5648 5646 5644 5641 5638 5636 5633 5631 5628 5625 5623 5622 5621
5713 5711 5709 5706 5702 5700 5697 5695 5694 5691 5689 5686 5685 5682 5679 5676 5676 5674 5672 5670 5667 5666 5664 5661 5658 5655 5653 5651 5648 5644 5641 5639 5638 5636 5633 5631 5628 5625 5622 5618 5615 5612 5609
5711 5710 5708 5705 5701 5697 5695 5693 5691 5689 5686 5683 5680 5678 5676 5673 5671 5669 5667 5664 5661 5659 5657 5655 5652 5649 5647 5644 5640 5637 5633 5631 5630 5628 5626 5624 5621 5618 5615 5611 5607 5603 5600
5710 5708 5705 5702 5699 5696 5693 5691 5688 5685 5682 5679 5676 5674 5671 5669 5666 5664 5661 5658 5656 5653 5649 5647 5644 5643 5640 5637 5633 5629 5626 5624 5622 5620 5617 5614 5612 5610 5607 5604 5601 5596 5592
5707 5703 5700 5698 5695 5693 5689 5686 5684 5680 5676 5673 5670 5667 5665 5663 5661 5658 5655 5653 5650 5646 5642 5639 5637 5635 5632 5629 5625 5622 5620 5617 5613 5610 5607 5604 5601 5599 5598 5595 5592 5589 5586
5701 5697 5695 5692 5690 5687 5683 5680 5677 5674 5670 5667 5664 5660 5658 5656 5654 5652 5648 5646 5643 5639 5636 5633 5630 5627 5624 5620 5617 5614 5610 5606 5603 5599 5596 5593 5592 5590 5588 5585 5583 5580 5577
5695 5692 5689 5686 5682 5680 5677 5674 5670 5666 5663 5661 5658 5654 5651 5649 5646 5644 5640 5637 5634 5630 5627 5624 5622 5618 5614 5610 5607 5604 5600 5597 5593 5589 5586 5584 5583 5580 5577 5574 5571 5568 5565
5690 5687 5684 5680 5676 5671 5667 5664 5662 5660 5658 5655 5652 5649 5646 5641 5639 5638 5634 5630 5627 5623 5619 5615 5612 5608 5604 5601 5597 5594 5590 5587 5583 5580 5577 5574 5571 5568 5565 5562 5559 5556 5551
5685 5681 5677 5673 5670 5665 5661 5655 5653 5652 5650 5649 5647 5643 5640 5637 5634 5631 5627 5624 5620 5616 5612 5607 5603 5599 5596 5592 5588 5584 5580 5577 5574 5570 5566 5563 5559 5556 5552 5549 5546 5542 5538
5679 5676 5672 5668 5664 5660 5656 5652 5646 5643 5642 5641 5638 5636 5632 5630 5627 5623 5620 5616 5612 5609 5603 5599 5595 5591 5587 5584 5579 5575 5571 5568 5564 5560 5556 5552 5548 5544 5540 5536 5532 5528 5524
5675 5671 5667 5663 5660 5656 5652 5648 5644 5639 5635 5631 5629 5628 5625 5622 5619 5615 5612 5607 5602 5599 5595 5591 5587 5583 5579 5575 5570 5566 5562 5558 5554 5549 5545 5540 5536 5531 5527 5522 5518 5514 5510
5668 5664 5662 5658 5655 5651 5648 5644 5640 5635 5631 5626 5622 5619 5617 5613 5610 5606 5602 5598 5594 5590 5586 5582 5578 5575 5570 5566 5561 5556 5552 5547 5542 5537 5533 5528 5523 5518 5513 5508 5504 5501 5496
5659 5657 5655 5651 5648 5644 5641 5638 5634 5630 5625 5621 5617 5613 5608 5604 5600 5596 5592 5589 5586 5581 5577 5573 5569 5565 5561 5556 5551 5546 5541 5536 5531 5526 5520 5515 5510 5505 5500 5496 5491 5487 5482
5652 5649 5647 5643 5640 5638 5634 5631 5628 5624 5619 5615 5611 5607 5603 5598 5594 5589 5585 5581 5578 5574 5569 5564 5559 5555 5551 5546 5541 5536 5531 5525 5519 5514 5509 5503 5498 5493 5488 5483 5478 5474 5470
5644 5641 5638 5635 5633 5630 5627 5624 5621 5617 5613 5609 5604 5599 5595 5590 5586 5582 5577 5573 5569 5565 5561 5556 5550 5545 5541 5536 5531 5525 5519 5514 5508 5502 5497 5491 5486 5481 5476 5471 5465 5461 5456
5635 5633 5630 5627 5625 5622 5619 5616 5613 5609 5605 5601 5596 5591 5586 5582 5578 5573 5569 5564 5559 5555 5551 5546 5541 5535 5530 5525 5519 5514 5508 5502 5497 5491 5485 5480 5474 5469 5464 5458 5453 5449 5444
5626 5624 5622 5619 5617 5614 5610 5607 5604 5600 5596 5592 5587 5582 5578 5573 5568 5564 5559 5554 5549 5545 5540 5535 5530 5525 5520 5514 5508 5503 5497 5491 5485 5480 5474 5468 5463 5458 5452 5447 5442 5438 5433
5617 5615 5612 5610 5608 5604 5601 5597 5594 5590 5586 5582 5577 5572 5568 5563 5558 5554 5549 5544 5539 5534 5530 5525 5520 5514 5509 5504 5498 5492 5486 5480 5474 5468 5463 5457 5452 5447 5442 5437 5432 5428 5423
5605 5604 5602 5599 5596 5594 5590 5586 5583 5579 5575 5571 5566 5562 5557 5553 5548 5543 5539 5534 5529 5524 5519 5514 5509 5504 5498 5493 5487 5482 5476 5470 5464 5458 5453 5447 5442 5437 5432 5428 5423 5419 5415